Location: Newark
(41.8922°N, 9.0050°E)
Time: 00:56:27
(UTC+00:00)

ISS - Pass Details

Date: 02 February 2020
Orbit: 416 x 422 km, 51.6° (Epoch: 21 February)

Event Time Altitude Azimuth Distance (km) Brightness Sun altitude
Rises 18:18:49 0° 308° (NW) 2,379 0.8 -18.7°
Reaches altitude 10° 18:21:06 10° 319° (NW) 1,511 -0.5 -19.1°
Enters shadow 18:23:32 28° 1° (N) 824 -2.4 -19.6°
